Location: Bauerbach
(50.4985°N, 10.3912°E)
Time: 08:57:26
(UTC+00:00)

SeaSat 1 - Pass Details

Date: 13 January 2026
Orbit: 737 x 740 km, 108.0° (Epoch: 16 February)

Event Time Altitude Azimuth Distance (km) Brightness Sun altitude
Rises 05:53:52 0° 29° (NNE) 3,185 5.8 -12.3°
Reaches altitude 10° 05:56:08 10° 29° (NNE) 2,258 5.1 -12.0°
Maximum altitude 06:01:03 84° 302° (WNW) 750 2.4 -11.2°
Drops below altitude 10° 06:05:57 10° 215° (SW) 2,245 4.8 -10.5°
Sets 06:08:12 0° 214° (SW) 3,164 5.6 -10.2°
